Flag for Germany Weather past 2 weeks in Lörrach, Baden-Württemberg, Germany

Now
39 °F

Light rain. Partly sunny.


Feels Like: 30 °F
Forecast: 19 / 35 °F
Wind: 17 mph from Southwest

Location: Bale-Mulhouse

Current Time: Dec 27, 2014 at 4:08:22 PM

Latest Report: Dec 27, 2014 at 3:30 PM


Visibility: N/A

Pressure: 29.53 "Hg

Humidity: 81%

Dew point: 34 °F

Location of LörrachLocation

Historic Weather in Lörrach — Graph

°F

Lörrach temperature yesterday

Maximum temperature yesterday: 43 °F (at 1:30 PM)
Minimum temperature yesterday: 30 °F (at 10:30 PM)
Average temperature yesterday: 38 °F

Past Weeks' High & Low Weather Summary

 TemperatureHumidityPressure
High55 °F (Dec 18, 4:00 PM)100% (Dec 14, 2:30 AM)30.57 "Hg (Dec 14, 2:30 AM)
Low30 °F (Dec 23, 5:00 AM)54% (Dec 23, 2:00 PM)29.53 "Hg (Dec 27, 1:30 PM)
Average43 °F85%30.18 "Hg
* Reported Dec 12 3:00 PM — Dec 27 3:00 PM, Lörrach, Weather by CustomWeather, © 2014

Note: Actual official high and low records may vary slightly from our data, if they occured in-between our weather recording intervals... More about our weather records

Advertising

Lörrach weather history for previous 24 hours

 ConditionsComfort  
Time TempWeatherWind HumidityBarometerVisibility
3:00 PM
Dec 27
39 °FLight rain. Partly sunny.20 mph81%29.53 "HgN/A
2:30 PM41 °FPartly sunny.17 mph70%29.53 "HgN/A
2:00 PM41 °FPartly sunny.20 mph76%29.53 "HgN/A
1:30 PM41 °FPartly sunny.15 mph81%29.53 "HgN/A
1:00 PM41 °FLight rain. Broken clouds.20 mph81%29.56 "HgN/A
12:30 PM39 °FLight rain. Broken clouds.12 mph87%29.56 "HgN/A
12:00 PM41 °FLight rain. Broken clouds.16 mph81%29.56 "HgN/A
11:30 AM39 °FLight rain. Broken clouds.15 mph87%29.56 "HgN/A
11:00 AM39 °FLight rain. Broken clouds.12 mph87%29.56 "HgN/A
10:30 AM39 °FLight rain. Partly sunny.8 mph87%29.56 "HgN/A
10:00 AM39 °FRain. Overcast.9 mph87%29.59 "Hg5 mi
9:30 AM37 °FLight rain. Overcast.9 mph93%29.59 "HgN/A
9:00 AM36 °FLight rain. Overcast.7 mph93%29.59 "HgN/A
8:30 AM34 °FLight rain. Partly sunny.10 mph100%29.62 "HgN/A
8:00 AM34 °FLight rain. Passing clouds.12 mph100%29.65 "HgN/A
7:30 AM34 °FLight snow. Passing clouds.13 mph93%29.68 "Hg4 mi
7:00 AM32 °FLight snow. Ice fog.10 mph100%29.71 "Hg1 mi
6:30 AM32 °FLight snow. Ice fog.12 mph100%29.74 "Hg1 mi
6:00 AM32 °FLight snow. Ice fog.9 mph100%29.80 "Hg1 mi
5:30 AM34 °FLight snow. Fog.7 mph93%29.83 "Hg1 mi
4:30 AM34 °FPassing clouds.8 mph81%29.92 "HgN/A
4:00 AM34 °FClear.6 mph87%29.95 "HgN/A
3:30 AM32 °FClear.7 mph93%29.98 "HgN/A
3:00 AM32 °FClear.7 mph93%30.04 "HgN/A
2:30 AM32 °FClear.6 mph93%30.07 "HgN/A
2:00 AM32 °FClear.6 mph93%30.09 "HgN/A
1:30 AM30 °FClear.6 mph93%30.12 "HgN/A
1:00 AM30 °FClear.3 mph93%30.12 "HgN/A
12:30 AM30 °FClear.3 mph93%30.15 "HgN/A
12:00 AM32 °FClear.6 mph93%30.18 "Hg10 mi
11:30 PM
Dec 26
30 °FClear.5 mph86%30.21 "Hg10 mi
11:00 PM32 °FClear.5 mph87%30.24 "Hg10 mi
10:30 PM30 °FClear.3 mph93%30.27 "Hg10 mi
10:00 PM34 °FPassing clouds.5 mph87%30.27 "HgN/A
9:30 PM34 °FPartly cloudy.2 mph87%30.30 "HgN/A
9:00 PM36 °FPassing clouds.2 mph81%30.30 "HgN/A
8:30 PM36 °FPassing clouds.3 mph87%30.33 "HgN/A
8:00 PM36 °FPartly cloudy.5 mph87%30.33 "HgN/A
7:30 PM36 °FPassing clouds.5 mph87%30.33 "HgN/A
7:00 PM37 °FPassing clouds.6 mph81%30.33 "HgN/A
6:30 PM37 °FPassing clouds.5 mph87%30.36 "HgN/A
6:00 PM39 °FPassing clouds.9 mph81%30.36 "HgN/A
5:30 PM39 °FPassing clouds.9 mph81%30.36 "HgN/A
5:00 PM39 °FPassing clouds.9 mph81%30.36 "HgN/A
4:30 PM39 °FPartly sunny.9 mph81%30.36 "HgN/A
4:00 PM39 °FPartly sunny.12 mph75%30.39 "HgN/A
Weather by CustomWeather, © 2014

See weather overviewHow to use our weather pages